TimeEST,TemperatureF,Dew PointF,Humidity,Sea Level PressureIn,VisibilityMPH,Wind Direction,Wind SpeedMPH,Gust SpeedMPH,PrecipitationIn,Events,Conditions,WindDirDegrees,DateUTC
12:54 AM,48.9,39.0,69,29.81,10.0,WSW,5.8,-,N/A,,Overcast,240,2013-11-10 05:54:00
1:54 AM,48.0,39.0,71,29.81,8.0,West,17.3,25.3,0.00,Rain,Light Rain,270,2013-11-10 06:54:00
2:54 AM,46.9,37.9,71,29.81,10.0,West,15.0,23.0,0.00,,Mostly Cloudy,270,2013-11-10 07:54:00
3:54 AM,46.0,36.0,68,29.82,10.0,West,16.1,21.9,N/A,,Mostly Cloudy,260,2013-11-10 08:54:00
4:54 AM,45.0,34.0,65,29.81,10.0,West,16.1,-,N/A,,Mostly Cloudy,260,2013-11-10 09:54:00
5:54 AM,45.0,28.9,53,29.83,10.0,WSW,19.6,25.3,N/A,,Overcast,240,2013-11-10 10:54:00
6:54 AM,44.1,28.9,55,29.84,10.0,West,16.1,23.0,N/A,,Mostly Cloudy,270,2013-11-10 11:54:00
7:54 AM,42.1,30.0,62,29.85,10.0,West,17.3,21.9,N/A,,Scattered Clouds,270,2013-11-10 12:54:00
8:54 AM,43.0,30.0,60,29.87,10.0,WSW,15.0,23.0,N/A,,Scattered Clouds,250,2013-11-10 13:54:00
9:54 AM,44.1,30.9,60,29.88,10.0,West,19.6,27.6,N/A,,Mostly Cloudy,260,2013-11-10 14:54:00
10:54 AM,44.1,30.9,60,29.89,10.0,West,20.7,27.6,N/A,,Mostly Cloudy,260,2013-11-10 15:54:00
11:54 AM,45.0,32.0,60,29.90,10.0,West,21.9,31.1,N/A,,Mostly Cloudy,260,2013-11-10 16:54:00
12:54 PM,45.0,32.0,60,29.91,10.0,WSW,23.0,33.4,0.00,Rain,Light Rain,250,2013-11-10 17:54:00
1:54 PM,43.0,34.0,71,29.94,4.0,West,28.8,40.3,0.00,Rain,Light Rain,270,2013-11-10 18:54:00
2:54 PM,44.1,33.1,65,29.96,10.0,West,26.5,36.8,0.00,,Mostly Cloudy,260,2013-11-10 19:54:00
3:54 PM,44.1,33.1,65,30.01,10.0,West,15.0,27.6,N/A,,Mostly Cloudy,260,2013-11-10 20:54:00
4:11 PM,42.8,33.8,70,30.01,10.0,WNW,18.4,28.8,0.00,Rain,Light Rain,290,2013-11-10 21:11:00
4:54 PM,42.1,30.9,65,30.06,10.0,West,21.9,32.2,0.00,,Mostly Cloudy,280,2013-11-10 21:54:00
5:54 PM,42.1,30.0,62,30.11,10.0,West,19.6,33.4,N/A,,Mostly Cloudy,280,2013-11-10 22:54:00
6:54 PM,41.0,28.9,62,30.13,10.0,West,17.3,24.2,N/A,,Mostly Cloudy,280,2013-11-10 23:54:00
7:54 PM,41.0,28.9,62,30.15,10.0,WNW,17.3,28.8,N/A,,Mostly Cloudy,290,2013-11-11 00:54:00
8:54 PM,39.9,28.9,65,30.18,10.0,West,13.8,21.9,N/A,,Mostly Cloudy,270,2013-11-11 01:54:00
9:54 PM,39.9,28.9,65,30.19,10.0,West,13.8,-,N/A,,Mostly Cloudy,260,2013-11-11 02:54:00
10:54 PM,37.9,28.0,68,30.19,10.0,West,9.2,-,N/A,,Scattered Clouds,260,2013-11-11 03:54:00
11:54 PM,37.0,28.0,70,30.21,10.0,West,11.5,-,N/A,,Scattered Clouds,260,2013-11-11 04:54:00